This demonstration page uses our WeatherBlox Daily Observations layout. Learn more.

Left ArrowRight Arrow

34.74481, -87.66753

Hourly Observations for August 30, 2015

Temp ( °F °C ) Dew Point ( °F °C ) Humidity (%) Winds ( mph kmh ) Pressure ( in mb ) Visibility ( mi km ) Precip ( " mm )
12:53 am 00:53 Clear 69 20.6 66 18.9 90 90 SE 3 6 30.08 1019 10 16 0.00 0.00
1:53 am 01:53 Clear 68 20 65 18.3 90 90 Calm 30.08 1019 10 16 0.00 0.00
2:53 am 02:53 Clear 68 20 65 18.3 90 90 E 3 6 30.06 1018 10 16 0.00 0.00
3:53 am 03:53 Mostly Cloudy 68 20 65 18.3 90 90 E 3 6 30.07 1018 10 16 0.00 0.00
4:53 am 04:53 Mostly Cloudy 69 20.6 66 18.9 90 90 E 3 6 30.08 1019 10 16 0.00 0.00
5:53 am 05:53 Partly Cloudy 69 20.6 66 18.9 90 90 E 5 7 30.08 1019 10 16 0.00 0.00
6:53 am 06:53 Mostly Sunny 69 20.6 66 18.9 90 90 Calm 30.10 1019 10 16 0.00 0.00
7:53 am 07:53 Mostly Cloudy 70 21.1 67 19.4 90 90 E 3 6 30.10 1019 10 16 0.00 0.00
8:53 am 08:53 Cloudy 72 22.2 67 19.4 84 84 SSE 3 6 30.11 1020 10 16 0.00 0.00
9:51 am 09:51 Partly Cloudy 72 22 68 20 88 88 SE 5 7 30.12 1020 10 16 0.00 0.00
9:53 am 09:53 Partly Cloudy 72 22.2 68 20 87 87 ESE 6 9 30.13 1020 10 16 0.00 0.00
10:06 am 10:06 Mostly Cloudy with Light Rain 72 22.2 68 20 87 87 ESE 6 9 30.12 1020 9 14 0.00 0.03
10:15 am 10:15 Cloudy with Light Rain 72 22.2 68 20 87 87 ESE 7 11 30.12 1020 8 13 0.00 0.03
10:53 am 10:53 Cloudy 72 22.2 68 20 87 87 SE 8 13 30.14 1021 8 13 0.00 0.03
11:53 am 11:53 Cloudy 73 22.8 69 20.6 87 87 ESE 6 9 30.14 1021 9 14 0.00 0.03
12:53 pm 12:53 Cloudy with Light Rain 73 22.8 69 20.6 87 87 ESE 8 13 30.13 1020 8 13 0.00 0.03
1:53 pm 13:53 Cloudy with Light Rain 74 23.3 70 21.1 88 88 ESE 6 9 30.11 1020 9 14 0.00 0.03
2:53 pm 14:53 Mostly Sunny 76 24.4 69 20.6 79 79 ESE 9 15 30.09 1019 10 16 0.00 0.03
3:53 pm 15:53 Mostly Sunny 78 25.6 66 18.9 67 67 SE 7 11 30.07 1018 10 16 0.00 0.00
4:53 pm 16:53 Sunny 79 26.1 65 18.3 62 62 ESE 8 13 30.06 1018 10 16 0.00 0.00
5:53 pm 17:53 Sunny 77 25 63 17.2 62 62 E 5 7 30.06 1018 10 16 0.00 0.00
6:53 pm 18:53 Sunny 75 23.9 65 18.3 71 71 Calm 30.06 1018 10 16 0.00 0.00
7:53 pm 19:53 Clear 72 22.2 66 18.9 82 82 Calm 30.06 1018 10 16 0.00 0.00
8:53 pm 20:53 Clear 69 20.6 65 18.3 87 87 E 3 6 30.07 1018 10 16 0.00 0.00
9:53 pm 21:53 Clear 68 20 64 17.8 87 87 Calm 30.08 1019 10 16 0.00 0.00
10:53 pm 22:53 Clear 67 19.4 64 17.8 91 91 Calm 30.07 1018 9 14 0.00 0.00
11:53 pm 23:53 Clear 67 19.4 64 17.8 91 91 Calm 30.07 1018 7 11 0.00 0.00

Powered by AerisWeather